Date,TemperatureHighF,TemperatureAvgF,TemperatureLowF,DewpointHighF,DewpointAvgF,DewpointLowF,HumidityHigh,HumidityAvg,HumidityLow,PressureMaxIn,PressureMinIn,WindSpeedMaxMPH,WindSpeedAvgMPH,GustSpeedMaxMPH,PrecipitationSumIn
2013-1-1,42.3,38.3,34.0,27.7,24.7,19.7,64,58,52,30.04,29.92,6,1,14,0.00
2013-1-2,53.4,31.0,24.1,39.0,12.8,8.0,59,47,33,30.24,30.01,7,2,18,0.00
2013-1-3,39.4,28.6,20.7,16.1,12.2,8.8,62,50,36,30.25,30.14,6,1,16,0.00
2013-1-4,43.2,33.4,23.7,22.5,17.5,13.0,65,52,41,30.19,30.08,8,2,23,0.00
2013-1-5,44.2,35.4,29.5,23.7,19.5,15.5,65,52,41,30.37,29.92,8,1,18,0.00
2013-1-6,53.1,41.1,27.5,32.2,26.1,20.9,82,57,34,30.21,30.03,6,1,20,0.00
2013-1-7,47.1,38.0,24.8,27.9,23.7,16.4,71,57,45,30.44,30.14,7,2,19,0.00
2013-1-8,53.0,35.6,22.5,32.5,23.9,16.0,78,64,38,30.42,30.36,6,1,12,0.00
2013-1-9,48.9,38.1,26.6,38.3,29.4,19.4,80,71,59,30.39,30.23,8,1,14,0.00
2013-1-10,53.1,44.2,36.1,31.7,26.6,21.9,74,50,36,30.60,30.36,9,2,18,0.00
2013-1-11,44.2,40.1,34.5,39.0,31.5,24.0,88,72,60,30.52,30.11,3,0,9,0.23
2013-1-12,58.5,46.4,41.5,46.3,40.7,38.3,89,81,63,30.19,30.11,3,0,8,0.00
2013-1-13,48.4,44.7,39.9,45.6,41.7,36.9,90,89,87,30.15,29.99,3,1,8,0.25
2013-1-14,56.1,49.5,39.2,50.8,42.1,31.9,90,77,53,30.32,29.96,12,2,17,0.19
2013-1-15,40.0,38.2,33.6,35.3,31.9,26.7,87,78,66,30.34,30.18,5,2,12,0.36
2013-1-16,42.3,36.1,33.3,37.4,32.2,28.8,88,86,81,30.16,29.85,5,1,12,0.37
2013-1-17,43.2,40.5,36.7,36.2,27.8,24.8,84,60,51,30.18,29.96,8,2,17,0.00
2013-1-18,37.0,32.1,25.7,24.7,11.6,2.8,65,44,25,30.49,30.05,10,3,20,0.00
2013-1-19,54.5,39.8,26.4,27.4,20.8,9.0,67,47,34,30.42,29.96,10,3,23,0.00
2013-1-20,59.2,42.2,29.3,31.0,20.0,7.3,72,44,23,30.10,29.82,12,3,30,0.00
2013-1-21,39.3,31.0,25.5,23.1,13.4,5.1,65,48,37,30.11,29.83,9,3,23,0.00
2013-1-22,27.3,19.3,13.6,6.4,-8.0,-13.1,42,29,23,30.29,29.94,13,4,28,0.00
2013-1-23,24.3,17.8,10.2,-5.0,-6.9,-10.3,48,33,25,30.34,30.13,7,2,23,0.00
2013-1-24,27.0,19.4,14.2,6.3,-0.4,-6.7,64,43,24,30.50,30.12,14,3,30,0.00
2013-1-25,22.1,17.9,14.9,9.1,-0.6,-7.8,65,45,29,30.50,30.07,6,1,14,0.00
2013-1-26,32.7,23.3,17.1,15.6,11.2,7.3,70,60,47,30.43,30.08,9,1,19,0.01
2013-1-27,39.0,27.2,17.6,16.4,12.7,7.9,71,56,33,30.59,30.43,7,1,12,0.00
2013-1-28,37.0,32.9,26.6,32.7,26.7,16.2,85,78,62,30.51,30.06,6,2,12,0.06
2013-1-29,65.8,47.4,32.5,50.2,39.5,28.8,90,75,55,30.14,29.99,6,1,12,0.00
2013-1-30,68.9,53.4,41.0,57.5,48.4,37.7,89,84,67,30.00,29.29,13,2,23,1.50
2013-1-31,57.4,41.9,27.0,53.9,24.1,3.9,89,51,32,29.91,29.15,13,5,44,0.47
2013-2-1,31.1,25.4,18.0,18.6,5.4,-4.1,73,43,28,30.35,29.84,13,4,33,0.02
2013-2-2,28.2,21.6,14.0,19.4,5.8,-3.7,75,52,29,30.37,30.03,9,2,17,0.00
2013-2-3,32.9,26.7,18.0,23.9,18.5,10.5,79,71,47,30.02,29.83,9,1,21,0.08
2013-2-4,34.7,28.5,20.1,17.6,10.7,4.9,56,47,39,30.13,29.91,9,2,29,0.01
2013-2-5,36.0,32.3,28.4,25.4,22.4,18.0,78,67,57,29.95,29.87,3,0,8,0.00
2013-2-6,41.0,33.8,26.2,26.6,22.2,13.9,82,63,46,30.36,29.94,6,2,18,0.00
2013-2-7,36.9,31.1,23.0,22.4,17.2,12.6,69,57,39,30.47,30.23,5,1,12,0.00
2013-2-8,40.6,36.3,32.7,36.5,28.9,19.1,88,75,57,30.23,29.74,8,3,25,0.14
2013-2-9,38.1,30.9,25.2,18.0,12.2,8.6,57,46,35,30.39,29.90,17,4,31,0.14
2013-2-10,43.2,31.5,18.1,22.5,12.0,3.8,70,46,25,30.49,30.27,7,1,12,0.00
2013-2-11,50.2,41.9,34.3,46.1,37.0,22.9,89,83,60,30.26,29.70,9,2,17,0.23
2013-2-12,53.8,45.0,34.1,34.8,26.5,21.9,79,49,35,30.00,29.81,9,3,25,0.02
2013-2-13,43.2,34.4,26.2,29.5,24.9,18.3,85,69,51,29.98,29.68,3,1,12,0.06
2013-2-14,50.0,36.9,28.0,32.5,26.2,23.0,86,67,38,30.02,29.77,7,1,14,0.11
2013-2-15,61.2,41.8,27.9,36.0,28.9,21.0,82,63,33,30.05,29.92,9,2,21,0.08
2013-2-16,36.1,33.7,31.1,29.6,24.9,13.7,85,71,48,30.03,29.82,8,2,16,0.02
2013-2-17,33.6,27.1,22.3,14.9,7.1,-0.7,64,43,29,30.17,29.82,15,5,33,0.00
2013-2-18,41.2,28.8,17.6,18.4,5.4,-2.3,63,37,25,30.36,30.17,10,2,21,0.00
2013-2-19,43.0,36.9,28.2,37.5,26.6,15.8,84,67,44,30.17,29.72,12,3,23,0.20
2013-2-20,36.3,29.9,23.7,17.3,10.3,1.5,50,44,35,30.14,29.84,13,4,32,0.01
2013-2-21,37.8,28.9,21.7,14.8,9.2,5.1,50,43,34,30.32,30.10,12,4,22,0.00
2013-2-22,32.8,30.1,26.6,25.7,17.1,10.4,78,59,48,30.40,30.23,6,1,12,0.00
2013-2-23,44.8,37.9,31.6,41.1,34.0,25.9,90,86,79,30.24,29.82,7,2,12,0.06
2013-2-24,50.7,40.8,30.9,40.0,28.6,16.1,91,65,36,30.11,29.80,12,4,24,0.06
2013-2-25,48.9,36.5,28.4,25.2,19.5,15.1,69,51,36,30.25,30.10,7,2,17,0.00
2013-2-26,42.1,35.9,27.0,37.5,28.2,17.8,87,74,59,30.24,29.67,12,2,28,0.52
2013-2-27,57.3,46.6,40.1,41.9,36.1,30.2,89,69,45,29.70,29.52,10,2,22,0.06
2013-2-28,48.7,42.2,37.8,33.2,27.9,23.1,74,58,39,29.73,29.64,10,2,17,0.00
2013-3-1,44.8,39.9,35.6,29.0,25.9,20.1,67,58,47,29.87,29.71,9,3,19,0.00
2013-3-2,39.2,34.3,30.6,25.6,18.6,16.2,61,52,44,29.88,29.80,8,3,18,0.00
2013-3-3,37.8,32.8,29.3,19.3,15.7,13.5,57,49,42,29.89,29.79,13,4,24,0.00
2013-3-4,42.1,33.1,25.5,18.1,13.1,7.7,50,44,36,30.02,29.89,10,4,25,0.00
2013-3-5,49.2,37.3,27.3,26.3,18.7,10.2,61,47,34,30.08,29.87,7,2,16,0.00
2013-3-6,38.9,35.7,32.9,32.6,29.0,22.0,85,77,55,29.98,29.68,10,6,29,0.69
2013-3-7,48.1,40.3,34.9,27.8,23.0,18.8,64,51,35,30.14,29.98,12,5,30,0.00
2013-3-8,48.9,40.9,33.8,25.0,21.4,16.5,55,46,38,30.27,30.12,16,7,37,0.00
2013-3-9,62.2,45.4,34.3,25.3,21.5,17.1,62,41,23,30.34,30.25,8,3,20,0.00
2013-3-10,61.2,45.9,28.4,33.7,25.0,19.1,76,48,23,30.35,30.25,7,2,16,0.00
2013-3-11,56.5,48.7,40.5,46.7,41.5,33.4,88,76,63,30.28,29.97,7,2,19,0.00
2013-3-12,59.0,51.2,41.6,53.9,44.1,29.4,95,78,56,30.00,29.74,10,4,21,0.85
2013-3-13,49.8,39.9,29.3,31.2,24.7,16.3,82,56,32,30.04,29.89,9,3,25,0.00
2013-3-14,43.9,36.3,30.0,18.5,14.1,9.2,58,41,27,30.09,30.01,10,5,29,0.05
2013-3-15,55.0,41.3,27.1,30.0,20.5,12.6,63,44,28,30.08,29.78,12,2,23,0.00
2013-3-16,48.3,40.8,35.6,36.5,31.6,28.8,80,70,57,29.95,29.70,6,2,14,0.01
2013-3-17,40.8,36.6,34.0,29.7,25.3,18.5,80,64,47,30.29,29.94,6,2,14,0.00
2013-3-18,36.3,34.7,28.6,32.2,23.7,11.4,88,66,47,30.34,29.90,6,2,24,0.32
2013-3-19,58.3,44.0,35.1,38.3,29.0,12.5,94,62,24,29.91,29.72,10,3,24,0.02
2013-3-20,51.3,41.8,29.7,21.6,16.2,12.6,57,37,25,29.98,29.78,12,3,28,0.00
2013-3-21,40.1,33.5,27.5,23.8,12.9,3.3,70,43,26,29.89,29.74,10,4,22,0.00
2013-3-22,45.3,34.6,25.9,20.6,14.7,6.7,56,44,31,30.00,29.86,12,3,23,0.00
2013-3-23,50.5,38.6,25.7,24.8,19.9,13.9,65,48,31,30.02,29.92,10,3,25,0.00
2013-3-24,43.9,36.2,26.4,27.8,21.2,15.7,73,55,43,30.01,29.68,6,1,12,0.00
2013-3-25,36.4,34.3,31.8,31.9,29.6,24.7,88,83,66,29.70,29.52,5,1,12,0.45
2013-3-26,52.4,41.0,30.2,33.4,29.1,22.1,88,65,33,29.97,29.69,9,2,22,0.01
2013-3-27,51.1,42.8,37.6,30.6,27.5,23.9,67,55,38,30.10,29.97,12,4,32,0.01
2013-3-28,48.7,41.9,32.9,32.9,27.2,23.7,74,57,39,30.22,30.07,9,3,21,0.00
2013-3-29,55.6,47.0,40.3,33.1,27.4,23.9,63,47,32,30.24,30.14,9,2,20,0.00
2013-3-30,60.8,45.8,31.1,33.4,26.1,19.8,77,50,25,30.23,30.12,7,1,16,0.00
2013-3-31,53.4,44.8,35.6,48.5,38.6,24.8,96,80,63,30.14,29.75,7,1,16,0.08
2013-4-1,65.9,47.8,36.1,47.2,34.6,13.8,99,65,33,29.99,29.73,14,3,33,0.00
2013-4-2,47.5,38.6,27.3,20.5,14.5,9.0,64,39,26,30.17,29.99,9,3,27,0.00
2013-4-3,50.5,37.7,25.2,21.9,14.9,8.6,63,41,23,30.37,30.17,12,3,25,0.00
2013-4-4,50.1,37.9,23.4,26.6,16.6,10.5,60,43,25,30.42,30.10,7,2,14,0.00
2013-4-5,65.5,49.7,37.0,36.4,27.8,17.0,93,51,22,30.10,29.81,9,3,22,0.18
2013-4-6,56.0,45.7,35.7,29.8,19.4,12.2,57,36,23,30.34,30.05,7,3,17,0.00
2013-4-7,64.6,51.6,39.5,44.8,38.3,30.0,80,62,46,30.29,30.00,9,3,20,0.00
2013-4-8,79.3,63.3,46.9,54.1,47.9,41.7,83,60,36,30.08,29.98,8,2,17,0.00
2013-4-9,86.2,70.4,54.9,58.5,53.1,48.5,81,57,36,30.08,29.94,8,2,18,0.00
2013-4-10,91.6,74.3,55.6,61.6,55.9,51.2,86,56,33,29.98,29.79,12,2,22,0.00
2013-4-11,83.5,67.5,53.6,61.7,57.1,50.3,92,72,45,30.00,29.80,6,2,18,0.00
2013-4-12,59.9,52.4,48.6,57.0,51.6,48.6,100,97,88,29.88,29.64,6,2,16,0.63
2013-4-13,66.0,54.1,40.5,49.2,42.3,37.6,100,69,38,29.97,29.79,9,2,20,0.00
2013-4-14,65.7,54.7,39.7,43.4,37.4,33.2,87,55,32,30.16,29.97,10,3,22,0.01
2013-4-15,62.4,55.5,51.8,50.0,45.9,41.5,83,70,62,30.32,30.15,6,1,14,0.00
2013-4-16,73.3,60.9,51.6,59.0,53.0,47.6,87,76,58,30.33,30.14,8,2,19,0.00
2013-4-17,71.6,63.3,55.4,60.7,56.2,52.0,98,79,60,30.26,30.13,8,2,18,0.00
2013-4-18,72.5,62.1,56.1,64.2,56.3,50.7,98,82,64,30.27,30.04,10,2,19,0.07
2013-4-19,74.5,64.2,52.2,66.6,60.6,48.7,97,88,72,30.03,29.62,7,2,18,0.79
2013-4-20,60.5,51.9,45.7,48.4,34.0,25.0,90,53,31,30.35,29.78,9,3,24,0.05
2013-4-21,55.4,45.9,35.4,33.5,25.6,20.5,70,46,28,30.60,30.35,7,2,19,0.00
2013-4-22,58.5,46.9,36.1,39.4,34.6,30.3,89,64,40,30.60,30.43,6,2,16,0.00
2013-4-23,61.5,50.9,44.6,45.8,40.6,35.3,88,69,46,30.43,30.14,6,2,14,0.00
2013-4-24,73.7,58.7,41.7,58.9,51.1,41.2,99,78,55,30.15,29.81,10,2,27,0.00
2013-4-25,64.4,53.9,43.9,49.2,33.8,25.6,70,49,25,30.31,29.98,10,3,27,0.00
2013-4-26,65.2,53.3,40.8,38.4,33.5,26.2,86,51,24,30.46,30.31,9,2,14,0.00
2013-4-27,71.6,55.2,39.2,40.6,36.1,32.4,86,54,25,30.45,30.31,6,1,14,0.00
2013-4-28,70.0,56.5,41.4,46.3,40.5,35.6,95,59,32,30.32,30.17,8,2,18,0.17
2013-4-29,57.9,55.1,51.8,57.3,53.0,39.6,100,93,52,30.19,30.08,5,1,12,0.29
2013-4-30,64.8,57.0,49.9,56.7,52.9,43.7,99,87,66,30.32,30.12,3,1,10,0.04
2013-5-1,71.0,57.2,42.4,47.3,41.3,34.0,91,60,26,30.46,30.31,5,1,14,0.00
2013-5-2,71.2,56.3,41.7,50.1,45.5,41.2,100,71,39,30.46,30.34,6,1,14,0.00
2013-5-3,68.4,55.7,45.6,49.2,44.8,40.8,97,69,42,30.41,30.33,6,1,14,0.00
2013-5-4,69.3,56.2,43.7,47.9,44.0,39.0,93,67,39,30.36,30.20,6,1,14,0.00
2013-5-5,63.9,53.4,44.2,45.9,42.7,38.5,87,68,49,30.27,30.18,6,1,16,0.02
2013-5-6,63.7,54.4,44.4,57.3,50.4,42.1,95,86,77,30.21,30.10,5,1,12,0.00
2013-5-7,63.3,60.0,56.7,62.5,59.1,56.1,100,97,89,30.12,29.99,5,1,14,0.39
2013-5-8,73.4,62.3,56.3,61.0,56.9,53.5,99,84,55,30.03,29.94,6,1,14,0.02
2013-5-9,74.7,62.8,52.2,59.6,55.7,51.6,100,80,55,30.01,29.94,6,1,16,0.01
2013-5-10,83.7,68.5,52.5,62.5,58.3,52.5,100,74,46,30.03,29.90,7,1,16,0.43
2013-5-11,77.7,65.8,62.1,66.3,63.0,57.1,99,91,60,29.95,29.73,7,1,27,0.18
2013-5-12,63.5,58.4,50.0,63.2,40.4,24.0,99,57,24,30.04,29.75,12,3,29,0.01
2013-5-13,58.1,49.6,39.9,36.3,29.7,22.4,80,49,26,30.17,30.03,7,2,23,0.00
2013-5-14,61.7,49.4,33.3,46.8,33.1,25.6,87,58,29,30.22,30.06,10,1,19,0.00
2013-5-15,76.3,62.5,51.6,61.7,53.6,45.2,93,74,55,30.09,29.72,8,1,14,0.01
2013-5-16,81.1,71.6,62.1,63.3,60.9,57.5,94,70,50,29.93,29.76,6,1,21,0.00
2013-5-17,81.3,69.2,54.5,57.8,50.2,38.7,98,56,29,30.18,29.93,6,1,12,0.00
2013-5-18,70.2,63.2,58.8,58.0,54.1,49.4,97,73,56,30.26,30.18,5,1,14,0.00
2013-5-19,66.4,62.5,58.5,64.5,61.8,57.9,100,98,93,30.25,30.13,2,0,6,0.01
2013-5-20,80.1,70.5,63.9,68.5,66.0,63.0,100,87,65,30.16,30.01,6,1,10,0.01
2013-5-21,85.8,73.9,63.5,71.1,67.8,63.2,100,83,59,30.02,29.90,5,1,14,0.00
2013-5-22,89.1,76.9,67.1,73.4,69.2,63.0,99,79,51,29.96,29.86,6,1,12,0.01
2013-5-23,81.7,70.7,63.9,69.3,66.3,61.4,99,87,60,29.93,29.78,10,2,18,0.48
2013-5-24,64.2,56.5,48.9,63.6,50.0,34.3,100,80,57,30.14,29.75,9,3,23,0.09
2013-5-25,64.8,54.8,44.1,38.6,34.8,30.5,70,49,32,30.15,30.06,13,4,24,0.00
2013-5-26,70.7,58.9,46.4,41.9,37.1,32.4,70,46,25,30.23,30.13,8,2,18,0.00
2013-5-27,72.5,60.1,44.4,48.0,43.2,38.0,87,57,29,30.30,30.20,3,1,12,0.00
2013-5-28,73.3,64.4,57.0,64.2,58.7,48.4,96,82,68,30.23,30.10,3,0,9,0.06
2013-5-29,88.9,76.7,63.3,68.5,65.1,62.5,99,71,44,30.14,30.08,7,2,17,0.00
2013-5-30,92.3,79.0,65.8,69.5,66.4,63.5,95,68,43,30.20,30.13,5,1,12,0.00
2013-5-31,91.4,78.7,64.6,69.1,65.0,61.0,99,67,37,30.18,30.05,7,2,17,0.00
2013-6-1,90.7,79.4,64.4,70.3,65.7,62.2,94,65,46,30.07,29.94,8,2,17,0.00
2013-6-2,85.4,76.9,68.7,72.1,67.2,63.0,97,73,57,29.95,29.86,8,2,17,0.19
2013-6-3,81.0,72.2,65.5,69.8,65.4,56.7,100,81,54,29.95,29.84,5,1,14,0.23
2013-6-4,74.1,66.0,57.6,56.5,48.0,43.1,79,54,37,30.15,29.96,7,2,16,0.00
2013-6-5,78.4,66.8,52.9,56.9,52.0,48.1,94,62,37,30.22,30.08,6,1,12,0.00
2013-6-6,74.8,67.1,62.4,65.1,58.9,52.5,98,76,60,30.12,29.92,6,1,12,0.14
2013-6-7,70.9,67.5,63.9,70.6,67.2,63.3,100,99,95,29.91,29.62,6,1,16,0.70
2013-6-8,78.3,70.1,63.9,65.8,63.1,60.8,99,80,56,30.12,29.69,6,1,14,0.06
2013-6-9,80.7,71.7,62.1,67.2,63.2,59.8,94,76,53,30.23,30.12,5,1,12,0.01
2013-6-10,76.3,71.6,67.8,75.1,70.2,66.5,99,96,83,30.14,29.82,7,1,18,1.54
2013-6-11,81.4,73.3,65.7,69.3,66.0,63.3,100,80,58,29.86,29.78,9,2,19,0.00
2013-6-12,84.0,74.7,63.9,68.8,65.9,62.4,97,76,53,29.89,29.82,6,1,16,0.00
2013-6-13,86.6,74.1,67.8,71.2,66.7,58.3,96,79,52,29.86,29.48,8,2,24,0.41
2013-6-14,77.7,67.8,59.2,58.4,54.8,50.2,90,65,43,29.99,29.58,9,3,20,0.00
2013-6-15,81.1,69.6,57.2,60.4,55.8,49.8,97,65,35,30.09,29.99,8,1,14,0.00
2013-6-16,82.2,71.2,59.7,67.6,61.6,54.9,87,73,48,30.06,29.90,8,1,19,0.00
2013-6-17,86.5,76.6,66.2,68.7,66.0,62.9,90,71,51,29.98,29.90,7,1,12,0.00
2013-6-18,77.6,70.8,64.0,72.3,67.4,63.1,99,89,71,29.95,29.82,6,0,12,0.08
2013-6-19,77.0,69.0,61.3,64.7,60.2,56.0,99,76,51,30.18,29.91,3,1,10,0.01
2013-6-20,79.7,69.7,58.3,64.0,58.8,53.7,99,71,45,30.29,30.18,6,1,14,0.00
2013-6-21,81.9,70.1,56.7,59.0,55.2,49.1,93,62,33,30.33,30.26,5,1,12,0.00
2013-6-22,86.9,74.0,60.4,68.0,63.7,58.8,98,72,50,30.28,30.16,7,1,16,0.00
2013-6-23,82.8,74.8,65.3,72.8,68.9,63.5,97,83,68,30.23,30.10,5,1,17,0.00
2013-6-24,91.9,78.2,68.5,72.8,67.9,62.3,98,74,43,30.14,30.05,5,1,24,0.00
2013-6-25,91.4,79.5,66.7,70.7,67.1,62.5,96,69,44,30.06,29.91,8,2,24,0.23
2013-6-26,89.5,75.8,65.8,71.9,68.5,65.1,98,81,52,29.95,29.84,6,1,17,0.04
2013-6-27,86.0,76.0,68.9,74.2,70.7,68.0,97,84,63,29.86,29.63,8,1,17,0.12
2013-6-28,88.2,77.3,70.3,70.8,68.5,65.7,94,76,48,29.65,29.51,7,2,19,0.01
2013-6-29,86.5,77.4,65.5,72.8,64.9,59.6,95,69,43,29.73,29.55,8,1,16,0.00
2013-6-30,84.8,76.5,71.4,75.8,71.7,69.1,96,86,64,29.89,29.73,5,1,12,0.55
2013-7-1,80.6,76.9,72.9,74.9,72.3,69.5,95,86,72,30.03,29.87,6,2,18,0.08
2013-7-2,84.2,77.4,74.3,73.1,71.7,70.2,91,83,67,30.21,30.02,8,3,18,0.00
2013-7-3,86.5,76.0,71.8,76.1,72.0,69.0,96,88,63,30.27,30.20,6,1,12,0.63
2013-7-4,88.2,80.0,73.0,74.0,72.3,68.6,97,79,56,30.28,30.20,7,2,16,0.00
2013-7-5,89.8,81.7,72.9,73.6,71.4,68.1,95,73,52,30.25,30.15,9,2,19,0.00
2013-7-6,93.9,82.0,72.3,74.2,71.3,68.5,95,72,47,30.21,30.09,6,2,14,0.00
2013-7-7,91.3,79.7,70.7,73.0,69.8,67.2,91,73,51,30.14,30.02,7,2,16,0.01
2013-7-8,85.2,76.3,69.8,71.3,68.3,63.7,95,78,49,30.12,30.06,6,1,14,0.01
2013-7-9,83.3,77.5,70.9,72.1,70.1,67.9,92,78,66,30.13,30.03,5,1,12,0.00
2013-7-10,87.3,79.6,73.2,74.6,66.2,-33.2,96,74,1,31.38,29.89,13,2,14,0.02
2013-7-11,85.6,77.1,71.8,72.6,68.7,63.8,95,77,49,29.95,29.86,6,1,16,0.07
2013-7-12,74.5,69.9,66.6,68.8,66.4,63.0,96,89,70,30.05,29.93,3,1,10,0.68
2013-7-13,85.6,75.7,69.3,73.0,70.3,67.9,98,84,63,30.32,30.03,5,1,10,0.02
2013-7-14,90.2,79.8,71.6,75.4,71.8,69.3,98,79,52,30.38,30.30,6,1,12,0.00
2013-7-15,92.5,81.6,70.3,75.0,70.7,68.7,97,73,47,30.33,30.21,5,1,14,0.00
2013-7-16,92.3,83.8,75.4,73.2,69.7,66.1,90,65,44,30.27,30.20,6,1,14,0.00
2013-7-17,93.6,83.3,72.1,72.5,69.8,65.9,92,67,43,30.25,30.13,5,1,12,0.00
2013-7-18,96.3,84.7,74.8,77.8,73.7,71.3,92,72,45,30.15,30.04,6,1,12,0.00
2013-7-19,96.4,84.8,74.5,77.6,73.8,68.3,93,72,47,30.05,29.90,7,1,19,0.04
2013-7-20,92.7,81.5,72.9,73.5,71.3,68.9,91,73,49,29.92,29.82,8,2,22,0.01
2013-7-21,88.3,78.5,70.7,71.2,69.2,66.7,92,74,52,29.98,29.91,5,1,9,0.00
2013-7-22,88.5,79.4,71.8,75.9,72.4,69.3,93,80,57,29.97,29.78,6,1,10,0.35
2013-7-23,85.9,76.8,71.1,74.4,70.2,65.8,97,82,54,29.81,29.67,6,1,19,0.04
2013-7-24,82.2,75.0,68.5,68.0,64.0,55.9,92,70,50,29.96,29.71,6,1,14,0.00
2013-7-25,77.4,68.1,59.7,63.1,57.0,51.4,84,68,58,30.06,29.96,6,1,14,0.00
2013-7-26,82.2,72.5,63.5,62.6,59.8,55.8,92,67,42,30.11,30.05,8,1,14,0.05
2013-7-27,85.3,72.8,62.8,70.1,66.0,60.3,96,81,55,30.08,29.95,8,1,23,0.19
2013-7-28,83.1,75.0,68.5,70.7,68.2,64.9,96,81,57,30.02,29.92,6,1,14,0.02
2013-7-29,82.0,71.9,64.6,65.7,58.4,53.1,94,66,39,30.18,30.00,6,1,12,0.00
2013-7-30,80.8,70.7,60.3,60.5,57.2,54.7,91,65,42,30.25,30.17,8,1,14,0.00
2013-7-31,81.2,72.2,61.7,65.9,63.1,60.0,95,75,54,30.19,30.05,6,1,14,0.00
2013-8-1,80.9,73.1,67.3,72.6,69.0,65.3,98,88,67,30.05,29.84,3,1,12,0.36
2013-8-2,85.6,75.4,64.4,70.5,64.3,60.8,98,72,45,29.98,29.87,7,1,16,0.00
2013-8-3,75.4,68.4,64.9,67.1,65.0,63.4,96,89,70,30.00,29.94,5,0,12,0.09
2013-8-4,79.9,70.3,60.6,64.2,56.9,51.7,98,66,40,30.05,29.92,8,2,18,0.00
2013-8-5,79.0,68.5,58.1,59.6,55.5,53.1,87,65,41,30.13,30.04,6,1,12,0.00
2013-8-6,68.2,66.3,63.1,66.7,64.1,58.4,98,93,79,30.12,30.05,2,0,8,0.17
2013-8-7,80.3,72.5,66.6,72.8,69.5,66.0,99,91,73,30.11,30.03,6,1,10,0.25
2013-8-8,86.9,76.2,68.5,75.3,71.5,66.9,98,87,57,30.09,30.00,9,2,19,0.93
2013-8-9,87.3,79.2,74.7,75.8,73.7,70.7,97,84,64,30.01,29.89,8,2,16,0.12
2013-8-10,82.6,75.6,50.0,71.0,65.9,39.1,92,74,44,30.11,29.96,3,1,12,0.00
2013-8-11,84.6,74.3,66.0,68.8,66.0,63.5,96,77,56,30.15,30.04,5,1,10,0.01
2013-8-12,86.6,76.6,68.5,71.4,67.6,62.9,95,76,48,30.07,29.96,6,1,12,0.00
2013-8-13,83.1,75.5,70.5,73.6,69.3,61.7,97,82,60,29.95,29.76,5,1,12,0.24
2013-8-14,73.5,66.9,58.6,60.9,51.0,45.5,82,57,45,30.12,29.84,8,3,21,0.00
2013-8-15,78.1,65.5,55.8,55.4,52.0,47.6,90,65,37,30.21,30.11,6,1,12,0.00
2013-8-16,80.3,66.6,54.3,59.4,55.2,52.2,97,70,41,30.23,30.16,6,1,10,0.00
2013-8-17,81.6,68.7,56.5,61.4,57.3,55.1,96,70,42,30.29,30.23,6,1,14,0.00
2013-8-18,73.6,68.5,64.8,63.0,60.6,57.4,93,77,58,30.27,30.19,6,1,12,0.00
2013-8-19,76.8,68.7,61.2,66.4,62.8,59.1,94,82,67,30.21,30.10,5,1,12,0.00
2013-8-20,88.5,74.3,62.6,69.8,64.3,61.7,99,75,43,30.19,30.11,3,1,14,0.00
2013-8-21,89.2,76.8,65.5,73.0,68.8,64.0,96,78,51,30.23,30.09,5,1,12,0.00
2013-8-22,86.7,78.4,70.4,72.7,68.9,65.9,93,74,50,30.11,29.96,6,1,16,0.00
2013-8-23,75.7,71.2,62.2,67.0,63.5,58.4,94,77,59,30.14,29.97,5,1,14,0.00
2013-8-24,82.8,70.2,61.2,62.4,57.9,52.8,92,67,38,30.37,30.14,5,1,10,0.00
2013-8-25,83.1,69.3,57.0,64.7,56.5,50.2,97,68,41,30.44,30.30,6,1,12,0.00
2013-8-26,87.6,73.1,58.8,64.8,60.3,53.8,91,67,43,30.31,30.02,8,2,12,0.00
2013-8-27,89.0,79.0,71.2,71.6,67.5,63.5,87,69,48,30.01,29.90,6,1,12,0.00
2013-8-28,82.0,75.5,71.2,74.2,70.9,69.5,95,86,70,29.94,29.85,7,1,14,0.06
2013-8-29,84.2,75.5,70.9,71.2,69.1,66.0,96,82,56,30.05,29.88,5,1,12,0.00
2013-8-30,89.2,77.8,69.6,71.3,67.5,65.1,89,72,48,30.07,29.92,8,2,14,0.00
2013-8-31,91.6,80.0,69.1,73.2,69.7,66.2,95,73,46,29.93,29.82,6,1,12,0.00
2013-9-1,93.9,80.7,69.4,73.0,70.3,67.2,94,73,46,29.88,29.80,6,1,10,0.00
2013-9-2,90.9,80.8,72.3,73.5,69.8,66.8,91,71,48,29.83,29.75,6,1,12,0.00
2013-9-3,84.2,76.8,67.6,72.0,61.7,53.4,90,62,39,29.98,29.76,8,2,16,0.00
2013-9-4,84.2,69.8,57.2,56.9,53.1,48.1,89,59,31,30.10,29.98,7,1,14,0.00
2013-9-5,83.4,69.2,57.6,61.9,57.1,50.3,92,68,44,30.16,30.04,7,1,16,0.05
2013-9-6,76.8,64.5,55.0,53.3,47.2,41.8,76,56,34,30.28,30.16,6,1,12,0.01
2013-9-7,83.1,66.5,52.2,61.9,53.7,48.3,90,67,36,30.17,29.96,5,1,14,0.00
2013-9-8,84.7,73.3,62.2,66.8,62.1,53.2,93,70,49,30.11,29.91,7,1,19,0.01
2013-9-9,78.9,68.4,59.2,66.3,55.2,46.1,81,63,53,30.24,30.10,6,1,10,0.00
2013-9-10,92.4,79.9,71.4,73.5,70.2,66.5,92,74,48,30.20,30.11,6,2,14,0.00
2013-9-11,96.8,82.6,70.9,75.3,71.4,65.6,97,72,44,30.17,30.04,7,1,14,0.00
2013-9-12,89.7,75.0,58.3,73.1,70.2,45.3,98,86,53,30.04,29.77,5,1,12,0.35
2013-9-13,77.7,69.6,62.4,68.7,57.0,48.5,98,67,39,29.94,29.73,8,2,16,0.01
2013-9-14,68.1,58.8,49.5,49.9,46.8,44.7,93,66,45,30.19,29.95,8,2,14,0.00
2013-9-15,77.2,61.2,46.2,57.0,50.7,45.4,99,73,38,30.26,30.11,5,1,12,0.00
2013-9-16,73.0,64.1,56.3,59.5,55.3,51.7,94,74,49,30.26,30.06,7,1,16,0.02
2013-9-17,69.4,57.3,46.9,53.4,42.8,37.7,88,61,33,30.45,30.27,6,2,14,0.00
2013-9-18,73.4,56.9,44.8,50.8,45.2,40.8,96,70,33,30.37,30.22,7,1,18,0.00
2013-9-19,80.2,61.8,46.8,57.4,52.2,44.8,95,74,43,30.23,30.11,7,1,14,0.00
2013-9-20,82.9,66.1,52.3,61.3,56.6,44.6,98,75,44,30.12,29.99,6,1,14,0.00
2013-9-21,78.1,66.7,59.7,65.9,61.0,57.4,98,83,55,30.02,29.72,7,2,18,0.38
2013-9-22,71.2,62.5,54.7,61.5,53.4,47.2,99,75,46,29.97,29.74,8,1,14,0.01
2013-9-23,66.7,57.2,48.7,48.4,44.6,40.2,91,65,45,30.10,29.97,7,2,14,0.00
2013-9-24,72.7,56.5,42.8,47.9,44.2,39.3,98,69,31,30.13,29.96,5,1,12,0.00
2013-9-25,76.8,59.7,46.4,52.5,47.8,42.9,96,70,31,30.00,29.90,5,1,9,0.00
2013-9-26,75.9,61.9,52.2,55.1,51.4,49.0,92,71,44,30.10,29.95,5,1,12,0.00
2013-9-27,73.9,62.7,55.0,60.2,56.5,53.1,95,81,57,30.28,30.10,5,0,14,0.00
2013-9-28,73.2,61.3,55.0,55.9,53.7,51.0,97,78,49,30.33,30.25,5,1,9,0.00
2013-9-29,75.4,60.3,50.7,58.5,52.6,49.8,99,78,45,30.25,30.09,3,1,9,0.00
2013-9-30,76.4,61.2,49.8,56.8,51.9,49.2,99,76,42,30.12,30.01,5,1,12,0.00
2013-10-1,83.0,65.6,52.0,61.1,56.3,51.4,98,76,43,30.09,29.99,6,1,14,0.00
2013-10-2,85.8,69.3,55.6,78.7,59.6,55.3,99,75,44,30.10,30.02,9,1,14,0.00
2013-10-3,84.3,70.4,59.4,65.1,61.9,58.5,98,77,48,30.15,30.07,5,0,9,0.00
2013-10-4,88.3,72.0,60.3,68.1,63.7,60.0,99,78,45,30.11,30.03,5,0,12,0.00
2013-10-5,91.0,74.9,63.9,67.8,64.5,62.8,98,74,41,30.11,30.03,5,1,14,0.00
2013-10-6,88.2,74.6,66.0,71.1,67.1,64.7,99,80,53,30.07,29.96,7,2,16,0.00
2013-10-7,74.3,66.2,57.2,70.6,62.1,45.1,98,87,63,30.06,29.81,9,2,20,0.69
2013-10-8,67.6,56.4,46.6,50.0,46.4,43.6,97,71,44,30.32,30.06,6,1,17,0.00
2013-10-9,60.3,55.9,51.8,51.1,48.1,44.5,89,75,65,30.35,30.24,6,2,12,0.01
2013-10-10,57.2,54.9,52.3,56.9,54.0,50.6,99,97,85,30.24,30.02,6,2,14,0.99
2013-10-11,62.4,59.5,56.5,61.5,59.0,56.2,99,98,94,30.03,29.96,6,2,14,0.79
2013-10-12,68.7,63.3,58.6,61.1,57.4,53.1,98,82,59,30.21,30.02,5,1,10,0.22
2013-10-13,67.6,59.9,54.5,58.7,55.6,50.9,99,86,68,30.36,30.20,3,1,12,0.01
2013-10-14,70.9,59.2,53.4,53.5,51.8,50.7,94,78,52,30.37,30.25,6,1,9,0.00
2013-10-15,73.8,59.2,50.7,54.9,49.7,41.0,99,75,39,30.26,30.12,5,1,9,0.01
2013-10-16,67.5,61.6,57.2,61.2,57.3,51.6,97,86,78,30.12,29.94,3,0,8,0.01
2013-10-17,77.3,66.0,60.6,65.7,62.1,56.2,99,88,64,29.93,29.75,5,1,17,0.02
2013-10-18,67.5,57.3,45.9,55.1,44.1,40.6,92,63,42,30.03,29.82,7,2,20,0.00
2013-10-19,66.7,53.8,44.1,56.3,48.5,42.7,97,84,52,30.03,29.80,5,1,14,0.02
2013-10-20,63.3,52.1,41.4,50.1,38.2,33.4,92,61,33,30.12,29.86,6,2,17,0.00
2013-10-21,69.6,52.6,37.9,48.0,41.7,37.7,99,72,33,30.17,29.99,9,1,14,0.00
2013-10-22,61.7,52.0,43.5,50.9,44.8,36.9,99,78,53,29.99,29.83,5,1,10,0.00
2013-10-23,57.6,48.8,44.1,39.6,35.1,31.2,75,60,41,29.88,29.67,5,1,16,0.00
2013-10-24,52.7,44.1,35.6,35.1,30.6,24.8,79,60,34,30.13,29.88,7,2,22,0.00
2013-10-25,54.9,43.2,32.7,35.3,30.3,27.4,84,62,39,30.32,30.13,6,2,21,0.00
2013-10-26,57.5,45.1,31.5,33.4,29.1,25.8,83,56,35,30.31,29.95,10,2,27,0.00
2013-10-27,60.4,47.4,35.6,38.4,33.3,30.0,86,61,34,30.18,29.95,7,1,22,0.00
2013-10-28,64.4,46.8,33.8,42.9,35.8,30.7,91,69,36,30.31,30.17,6,1,12,0.00
2013-10-29,64.8,49.1,37.9,45.2,40.2,34.3,92,73,43,30.40,30.30,5,1,9,0.00
2013-10-30,65.1,53.7,46.8,56.1,51.2,44.3,99,92,72,30.35,30.17,5,0,9,0.05
2013-10-31,66.9,59.2,52.2,60.5,56.4,51.3,99,91,76,30.22,29.81,6,1,16,0.01
2013-11-1,72.0,64.5,55.9,63.9,58.0,52.7,97,81,51,29.81,29.60,10,2,23,0.01
2013-11-2,69.4,56.6,47.1,55.1,46.0,38.1,99,71,40,29.88,29.67,8,1,21,0.00
2013-11-3,55.8,47.4,37.0,43.1,31.2,18.7,90,57,25,30.48,29.88,10,3,23,0.00
2013-11-4,46.5,38.3,30.7,25.0,20.2,12.8,65,50,27,30.64,30.48,6,1,12,0.00
2013-11-5,58.7,47.8,35.5,46.8,37.4,23.6,83,67,56,30.62,30.49,3,1,10,0.00
2013-11-6,69.1,56.8,45.3,53.8,49.0,43.4,97,76,53,30.48,30.09,6,2,14,0.00
2013-11-7,60.1,52.5,43.0,56.0,45.7,22.9,98,79,44,30.08,29.88,8,2,22,0.01
2013-11-8,51.6,41.3,30.4,31.9,25.3,22.1,84,55,34,30.31,30.08,12,2,28,0.01
2013-11-9,55.2,42.0,27.7,33.9,26.4,22.2,86,57,32,30.35,30.04,8,2,22,0.09
2013-11-10,63.3,47.1,33.4,36.8,28.5,-20.9,80,52,4,30.63,29.87,13,2,22,0.01
2013-11-11,55.8,46.8,32.7,33.7,29.7,25.3,77,53,36,30.30,30.02,7,2,16,0.29
2013-11-12,49.5,38.9,28.8,37.6,20.6,5.9,70,49,29,30.39,29.99,13,3,29,0.00
2013-11-13,43.3,33.6,26.2,19.4,16.5,11.7,66,50,31,30.46,30.37,9,2,24,0.00
2013-11-14,59.5,39.5,24.8,21.0,17.1,12.9,70,45,20,30.37,30.23,8,1,19,0.13
2013-11-15,61.8,41.7,27.7,38.0,27.2,20.2,79,60,22,30.28,30.20,5,0,12,0.11
2013-11-16,52.9,47.8,41.9,49.2,44.9,38.8,99,90,78,30.35,30.25,3,0,7,0.01
2013-11-17,60.8,55.3,49.5,58.5,53.4,49.2,99,94,80,30.26,29.78,6,1,17,0.19
2013-11-18,69.8,59.7,48.9,61.8,36.2,21.1,99,48,19,29.93,29.70,8,3,23,0.12
2013-11-19,50.1,43.1,32.2,28.6,25.1,22.1,66,50,37,30.38,29.94,12,4,27,0.11
2013-11-20,47.5,34.5,26.4,26.3,19.7,8.8,80,58,22,30.58,30.37,7,1,14,0.00
2013-11-21,50.4,40.1,28.0,40.4,31.0,19.5,81,70,58,30.59,30.40,6,1,10,0.04
2013-11-22,61.0,52.8,45.3,52.4,46.1,39.8,86,78,64,30.39,30.01,5,1,12,0.00
2013-11-23,55.2,42.1,29.7,49.8,25.3,6.4,82,52,34,30.18,30.03,10,5,31,0.00
2013-11-24,32.9,26.5,22.6,11.3,1.1,-7.7,50,34,21,30.49,30.18,15,5,29,0.00
2013-11-25,37.4,28.0,18.9,9.9,4.9,0.0,55,38,22,30.56,30.35,7,2,17,0.00
2013-11-26,49.1,35.3,31.3,48.8,26.0,9.8,99,72,39,30.35,29.57,6,1,16,1.05
2013-11-27,50.4,37.7,29.1,50.1,32.8,14.9,99,84,53,29.99,29.50,10,4,29,0.43
2013-11-28,38.3,30.8,26.2,20.0,13.2,9.3,66,49,34,30.48,29.99,9,3,25,0.00
2013-11-29,42.1,31.4,24.1,22.1,18.1,14.4,76,59,39,30.73,30.47,9,2,18,0.00
2013-11-30,40.1,29.8,-16.0,22.6,16.9,-29.6,72,59,42,30.73,29.68,3,1,9,0.00
2013-12-1,48.9,36.5,23.5,32.7,26.1,18.9,86,67,45,30.38,30.03,5,0,9,0.04
2013-12-2,46.9,41.4,38.3,36.2,34.1,32.6,84,75,63,30.03,29.89,5,0,7,0.00
2013-12-3,58.3,44.4,35.2,37.6,34.5,30.0,84,70,45,30.02,29.90,5,0,12,0.00
2013-12-4,53.2,45.0,36.1,47.5,40.0,31.8,97,83,70,30.11,30.01,2,0,7,0.00
2013-12-5,62.2,54.4,48.2,60.0,53.2,47.7,99,96,86,30.10,29.94,5,1,14,0.00
2013-12-6,63.7,49.1,36.0,61.9,47.9,34.4,99,96,90,30.20,29.90,13,3,19,0.95
2013-12-7,41.6,36.0,30.4,35.2,28.0,17.7,95,74,57,30.54,30.12,10,3,23,0.17
2013-12-8,30.2,27.2,24.8,28.9,19.7,12.4,96,74,53,30.59,30.30,7,2,12,0.00
2013-12-9,36.5,33.1,29.8,34.3,31.6,28.8,97,94,88,30.30,30.03,3,0,7,0.49
2013-12-10,35.4,30.3,21.4,32.5,27.6,16.2,99,90,72,30.21,29.99,3,0,10,0.04
2013-12-11,38.1,25.2,17.1,22.9,15.1,12.0,85,67,41,30.40,30.21,6,1,12,0.09
2013-12-12,34.0,23.8,16.3,16.4,6.6,-2.6,84,49,27,30.42,30.24,9,2,16,0.00
2013-12-13,43.7,29.3,15.6,20.6,10.3,2.5,69,47,25,30.32,30.21,8,1,20,0.01
2013-12-14,38.1,33.2,29.3,34.1,25.4,19.1,95,74,48,30.35,29.71,8,1,18,0.66
2013-12-15,46.6,34.9,26.2,37.8,26.6,16.0,94,73,52,29.94,29.63,8,2,28,0.08
2013-12-16,34.4,31.1,27.5,24.1,16.9,8.7,75,56,44,30.20,29.93,7,2,14,0.00
2013-12-17,34.3,30.7,28.0,25.7,21.5,17.6,78,69,61,30.19,29.95,5,1,12,0.00
2013-12-18,39.6,31.0,23.4,23.8,18.0,14.6,80,60,38,30.22,29.99,8,1,19,0.00
2013-12-19,55.2,35.2,21.4,30.6,23.0,15.3,82,64,31,30.21,30.07,5,1,14,0.00
2013-12-20,55.4,44.3,30.4,40.5,31.8,26.3,86,64,38,30.12,30.00,6,1,14,0.00
2013-12-21,69.1,58.5,42.3,57.7,48.3,31.7,81,69,57,30.03,29.91,9,3,23,0.01
2013-12-22,69.4,64.2,61.3,62.7,59.7,56.9,94,85,77,30.02,29.84,13,4,31,0.08
2013-12-23,61.3,53.4,37.2,59.8,49.2,26.9,99,86,63,30.23,29.93,9,2,22,0.64
2013-12-24,40.1,32.8,22.5,25.4,16.5,-1.8,70,52,28,30.45,30.19,12,3,28,0.00
2013-12-25,32.0,24.6,17.2,12.8,6.5,2.1,58,46,33,30.57,30.40,6,2,12,0.00
2013-12-26,44.7,30.6,21.9,26.6,18.6,11.3,80,62,42,30.39,30.22,6,1,23,0.01
2013-12-27,50.5,33.3,21.2,23.9,16.8,10.9,79,55,23,30.42,30.31,8,1,14,0.00
2013-12-28,61.0,40.1,23.8,28.8,22.3,16.4,77,54,22,30.33,30.12,8,1,19,0.00
2013-12-29,46.0,41.3,36.1,45.2,37.7,26.9,98,88,66,30.11,29.54,7,1,17,0.64
2013-12-30,44.2,36.6,29.7,41.3,27.8,13.4,99,72,50,30.20,29.82,9,2,19,0.01
2013-12-31,42.6,31.6,24.3,25.3,14.8,9.6,58,50,35,30.33,30.10,10,2,27,0.00
2014-1-1,46.6,32.0,22.3,25.5,19.5,11.6,78,61,40,30.41,30.15,7,1,19,0.00
2014-1-2,35.2,31.2,23.7,28.8,26.2,20.4,90,82,74,30.15,29.64,6,1,12,0.00